Location: Godiavel Galaoual
(15.2485°N, 12.6604°W)
Time: 02:10:10
(UTC+00:00)

N. Korean satellite - Pass Details

Date: 06 December 2021
Orbit: 447 x 491 km, 97.3° (Epoch: 22 January)

Event Time Altitude Azimuth Distance (km) Brightness Sun altitude
Rises 05:33:05 0° 20° (NNE) 2,438 10.1 -21.3°
Reaches altitude 10° 05:35:10 10° 26° (NNE) 1,569 9.2 -20.8°
Maximum altitude 05:38:23 44° 100° (E) 631 7.6 -20.1°
Drops below altitude 10° 05:41:37 10° 174° (S) 1,580 9.5 -19.4°
Sets 05:43:43 0° 180° (S) 2,458 10.4 -18.9°
